EW2546 Weather Reports


Display with metric or nautical units.
time (UTC)temp
F
wind
direction
speed
MPH
gust
MPH
rain 1hr
in
rain 24hr
in
rain mn
in
humidity
%
barometer
mb
20260503215524 50 318 6.0 13.0 0.00 0.12 0.00 45 1003.6
20260503215025 51 265 4.0 12.0 0.00 0.12 0.00 46 1003.6
20260503214536 51 286 2.0 10.0 0.00 0.12 0.00 49 1003.5
20260503214026 51 302 1.0 13.0 0.00 0.12 0.00 50 1003.5
20260503213526 52 294 5.0 13.0 0.00 0.12 0.00 46 1003.6
20260503213035 52 285 2.0 12.0 0.00 0.12 0.00 48 1003.5
20260503212525 52 274 3.0 9.0 0.00 0.12 0.00 46 1003.4
20260503212025 51 301 1.0 9.0 0.00 0.12 0.00 53 1003.4
20260503211542 51 0 2.0 12.0 0.00 0.12 0.00 46 1003.4
20260503211024 51 282 4.0 12.0 0.00 0.12 0.00 50 1003.3
20260503210524 52 303 3.0 10.0 0.00 0.12 0.00 49 1003.3
20260503210040 52 0 1.0 7.0 0.00 0.12 0.00 48 1003.4
20260503205531 52 282 0.0 4.0 0.00 0.12 0.00 51 1003.3
20260503205025 52 0 0.0 7.0 0.00 0.12 0.00 52 1003.3
20260503204539 51 0 2.0 7.0 0.00 0.12 0.00 51 1003.4
20260503204025 51 0 1.0 7.0 0.00 0.12 0.00 52 1003.4
20260503203527 51 303 1.0 7.0 0.00 0.12 0.00 53 1003.4
20260503203040 51 332 1.0 8.0 0.00 0.12 0.00 51 1003.4
20260503202525 51 301 4.0 9.0 0.00 0.12 0.00 57 1003.5
20260503202022 50 303 3.0 9.0 0.00 0.12 0.00 54 1003.5
20260503201538 50 268 2.0 9.0 0.00 0.12 0.00 56 1003.6
20260503201026 50 0 2.0 5.0 0.00 0.12 0.00 55 1003.5
20260503200525 50 0 0.0 10.0 0.00 0.12 0.00 56 1003.6
20260503200035 50 338 1.0 10.0 0.00 0.12 0.00 57 1003.7
20260503195524 50 301 3.0 10.0 0.00 0.12 0.00 55 1003.6
20260503195027 50 0 2.0 9.0 0.00 0.12 0.00 57 1003.7
20260503194543 50 311 2.0 12.0 0.00 0.12 0.00 54 1003.7
20260503194028 50 299 2.0 12.0 0.00 0.12 0.00 60 1003.8
20260503193529 50 0 2.0 11.0 0.00 0.12 0.00 57 1003.9
20260503193041 49 338 1.0 11.0 0.00 0.12 0.00 64 1003.9
20260503192525 49 0 1.0 6.0 0.00 0.12 0.00 62 1003.9
20260503192025 49 0 0.0 5.0 0.00 0.12 0.00 64 1004.0
20260503191540 49 0 1.0 5.0 0.00 0.12 0.00 63 1004.0
20260503191025 49 0 0.0 5.0 0.00 0.12 0.00 63 1004.0
20260503190526 49 0 0.0 5.0 0.00 0.12 0.00 65 1004.0
20260503190044 49 0 0.0 7.0 0.00 0.12 0.00 63 1004.0
20260503185522 49 306 1.0 7.0 0.00 0.12 0.00 64 1004.0
20260503185026 49 0 0.0 8.0 0.00 0.12 0.00 63 1003.9
20260503184540 49 0 0.0 8.0 0.00 0.12 0.00 63 1004.0
20260503184025 49 0 1.0 8.0 0.00 0.12 0.00 65 1004.1
20260503183525 49 0 0.0 9.0 0.00 0.12 0.00 63 1004.0
20260503183042 49 0 0.0 11.0 0.00 0.12 0.00 64 1004.0
20260503182532 49 0 4.0 11.0 0.00 0.12 0.00 63 1004.1
20260503182028 49 0 0.0 8.0 0.00 0.12 0.00 65 1004.1
20260503181541 49 332 1.0 9.0 0.00 0.12 0.00 64 1004.1
20260503181025 49 286 0.0 9.0 0.00 0.12 0.00 65 1004.3
20260503180526 49 0 1.0 9.0 0.00 0.12 0.00 69 1004.2
20260503180040 49 351 2.0 9.0 0.00 0.12 0.00 67 1004.2
20260503175526 48 277 0.0 8.0 0.00 0.13 0.00 70 1004.3
20260503175027 48 0 1.0 8.0 0.00 0.13 0.00 67 1004.2
20260503174558 48 0 2.0 11.0 0.00 0.13 0.00 68 1004.2
20260503174022 48 308 3.0 11.0 0.00 0.13 0.00 68 1004.3
20260503173526 48 298 1.0 10.0 0.00 0.13 0.00 68 1004.2
20260503173040 48 0 2.0 10.0 0.00 0.13 0.00 72 1004.4
20260503172523 48 307 4.0 10.0 0.00 0.13 0.00 69 1004.3
20260503172025 47 0 2.0 7.0 0.00 0.13 0.00 72 1004.3
20260503171536 47 303 1.0 6.0 0.00 0.13 0.00 72 1004.4
20260503171023 47 0 1.0 6.0 0.00 0.13 0.00 71 1004.4
20260503170523 47 0 0.0 13.0 0.00 0.13 0.00 72 1004.4
20260503150522 43 1 1.0 8.0 0.00 0.13 0.00 88 1005.1
20260503131029 43 0 0.0 7.0 0.00 0.16 0.00 92 1006.0
20260503130530 43 0 0.0 7.0 0.00 0.16 0.00 92 1006.1
20260503110530 42 14 0.0 4.0 0.00 0.18 0.00 95 1006.9
20260503081547 41 0 0.0 0.0 0.00 0.18 0.00 95 1008.0
20260503081023 41 0 0.0 0.0 0.00 0.18 0.00 95 1008.2
20260503080526 41 0 0.0 0.0 0.00 0.18 0.00 95 1008.3
20260503072526 42 0 0.0 0.0 0.00 0.18 0.00 95 1008.3
20260503072026 42 0 0.0 0.0 0.00 0.18 0.00 95 1008.3
20260503071541 42 0 0.0 0.0 0.00 0.18 0.00 95 1008.3
20260503071025 42 0 0.0 0.0 0.00 0.18 0.00 95 1008.6
20260503070525 42 0 0.0 0.0 0.00 0.18 0.00 95 1008.6
20260503055025 42 0 0.0 0.0 0.00 0.18 0.00 95 1009.4
20260503054541 42 0 0.0 0.0 0.00 0.18 0.00 95 1009.5
20260503054027 42 0 0.0 0.0 0.00 0.18 0.00 95 1009.4
20260503053525 42 0 0.0 0.0 0.00 0.18 0.00 95 1009.4
20260503053040 42 0 0.0 0.0 0.00 0.18 0.00 95 1009.4
20260503052526 42 0 0.0 0.0 0.00 0.18 0.00 95 1009.4
20260503052031 42 0 0.0 1.0 0.00 0.18 0.00 95 1009.5
20260503051540 42 0 0.0 1.0 0.00 0.18 0.00 95 1009.6
20260503051023 42 0 0.0 1.0 0.00 0.18 0.00 95 1009.7
20260503050523 42 0 0.0 0.0 0.00 0.18 0.00 95 1009.8
20260503050037 42 0 0.0 0.0 0.00 0.18 0.00 94 1009.7
20260503045524 42 0 0.0 0.0 0.00 0.18 0.00 95 1009.9
20260503045026 42 0 0.0 0.0 0.00 0.18 0.00 94 1009.7
20260503044545 42 0 0.0 0.0 0.00 0.18 0.00 94 1009.9
20260503044026 42 0 0.0 0.0 0.00 0.18 0.00 95 1009.9
20260503043526 42 0 0.0 0.0 0.00 0.18 0.00 95 1010.0
20260503043044 42 0 0.0 0.0 0.00 0.18 0.00 95 1010.3
20260503042526 42 0 0.0 0.0 0.00 0.18 0.00 95 1010.4
20260503042027 42 0 0.0 0.0 0.00 0.18 0.00 95 1010.3
20260503041542 42 0 0.0 0.0 0.00 0.18 0.00 95 1010.3
20260503041023 42 0 0.0 0.0 0.01 0.18 0.00 95 1010.4
20260503040525 42 0 0.0 0.0 0.01 0.18 0.00 95 1010.5
20260503040042 42 0 0.0 0.0 0.01 0.18 0.00 95 1010.4
20260503035526 42 0 0.0 0.0 0.01 0.18 0.18 95 1010.4
20260503035025 42 0 0.0 0.0 0.01 0.18 0.18 95 1010.4
20260503034557 42 0 0.0 0.0 0.01 0.18 0.18 95 1010.6
20260503034025 42 0 0.0 0.0 0.01 0.18 0.18 95 1010.7
20260503033527 42 0 0.0 0.0 0.01 0.18 0.18 95 1010.7
20260503033037 42 0 0.0 0.0 0.01 0.18 0.18 94 1010.8
20260503032523 42 0 0.0 0.0 0.01 0.18 0.18 94 1010.9
20260503032026 42 0 0.0 0.0 0.01 0.18 0.18 94 1010.8
20260503031537 42 0 0.0 0.0 0.01 0.18 0.18 94 1011.0
20260503031025 42 0 0.0 0.0 0.00 0.17 0.17 94 1011.0
20260503030527 42 0 0.0 0.0 0.00 0.17 0.17 94 1011.1
20260503030041 42 0 0.0 0.0 0.00 0.17 0.17 94 1011.1
20260503025525 42 0 0.0 0.0 0.00 0.17 0.17 94 1011.1
20260503025025 42 0 0.0 0.0 0.00 0.17 0.17 94 1011.0
20260503024542 42 0 0.0 0.0 0.01 0.17 0.17 94 1011.0
20260503024026 42 0 0.0 0.0 0.01 0.17 0.17 94 1011.0
20260503023526 42 0 0.0 0.0 0.02 0.17 0.17 94 1011.1
20260503023038 42 0 0.0 1.0 0.02 0.17 0.17 94 1011.0
20260503022525 42 0 0.0 1.0 0.03 0.17 0.17 94 1011.0
20260503022025 42 0 0.0 4.0 0.04 0.17 0.17 94 1011.0
20260503021539 42 0 0.0 4.0 0.04 0.17 0.17 94 1011.1
20260503021025 43 0 0.0 4.0 0.04 0.17 0.17 94 1011.1
20260503020526 43 0 0.0 2.0 0.04 0.17 0.17 94 1011.2
20260503020038 43 0 0.0 0.0 0.04 0.17 0.17 94 1011.4
20260503015526 43 0 0.0 0.0 0.04 0.17 0.17 94 1011.5
20260503015025 43 0 0.0 0.0 0.04 0.17 0.17 94 1011.6
20260503014540 43 0 0.0 0.0 0.03 0.16 0.16 94 1011.7
20260503014024 43 0 0.0 0.0 0.03 0.16 0.16 94 1011.7
20260503013526 43 0 0.0 0.0 0.03 0.15 0.15 94 1011.8
20260503013042 43 0 0.0 0.0 0.03 0.15 0.15 94 1011.8
20260503012526 43 0 0.0 0.0 0.02 0.14 0.14 94 1011.9
20260503012026 43 0 0.0 0.0 0.01 0.13 0.13 94 1011.9
20260503011540 43 0 0.0 0.0 0.01 0.13 0.13 94 1011.8
20260503011029 43 0 0.0 0.0 0.01 0.13 0.13 94 1011.7
20260503010525 43 0 0.0 0.0 0.02 0.13 0.13 94 1011.7
20260503010040 43 0 0.0 0.0 0.02 0.13 0.13 94 1011.7
20260503005525 43 0 0.0 0.0 0.02 0.13 0.13 94 1011.7
20260503005023 43 0 0.0 0.0 0.02 0.13 0.13 94 1011.6
20260503004538 43 0 0.0 0.0 0.02 0.13 0.13 94 1011.6
20260503004023 43 0 0.0 0.0 0.02 0.13 0.13 94 1011.6
20260503003523 43 0 0.0 0.0 0.01 0.12 0.12 94 1011.6
20260503003048 43 0 0.0 0.0 0.01 0.12 0.12 94 1011.5
20260503002526 43 0 0.0 0.0 0.01 0.12 0.12 94 1011.4
20260503002026 43 0 0.0 0.0 0.01 0.12 0.12 94 1011.5
20260503001554 43 0 0.0 0.0 0.01 0.12 0.12 94 1011.6
20260503001025 44 0 0.0 0.0 0.01 0.12 0.12 94 1011.6
20260503000529 44 0 0.0 0.0 0.01 0.11 0.11 94 1011.6
20260503000035 44 0 0.0 0.0 0.01 0.11 0.11 94 1011.6
20260502235525 44 0 0.0 0.0 0.01 0.11 0.11 94 1011.5
20260502235025 44 0 0.0 0.0 0.01 0.11 0.11 94 1011.4
20260502234545 44 0 0.0 0.0 0.01 0.11 0.11 94 1011.3
20260502234026 44 0 0.0 0.0 0.02 0.11 0.11 94 1011.4
20260502233525 44 0 0.0 0.0 0.02 0.11 0.11 94 1011.4
20260502233039 44 0 0.0 0.0 0.03 0.11 0.11 94 1011.4
20260502232522 44 0 0.0 0.0 0.04 0.11 0.11 94 1011.3
20260502232025 44 0 0.0 0.0 0.04 0.11 0.11 94 1011.3
20260502231538 44 0 0.0 0.0 0.04 0.11 0.11 94 1011.3
20260502231025 44 0 0.0 0.0 0.03 0.10 0.10 94 1011.4
20260502230525 44 0 0.0 0.0 0.03 0.10 0.10 94 1011.4
20260502230037 44 0 0.0 0.0 0.03 0.10 0.10 93 1011.4
20260502225522 44 0 0.0 0.0 0.04 0.10 0.10 93 1011.4
20260502225025 44 0 0.0 0.0 0.04 0.10 0.10 93 1011.3
20260502224536 44 0 0.0 0.0 0.04 0.10 0.10 93 1011.3
20260502224025 44 0 0.0 0.0 0.03 0.09 0.09 93 1011.3
20260502223530 44 0 0.0 0.0 0.03 0.09 0.09 93 1011.3
20260502223040 44 0 0.0 0.0 0.02 0.08 0.08 93 1011.3
20260502222526 44 0 0.0 0.0 0.01 0.07 0.07 93 1011.3
20260502222025 44 0 0.0 1.0 0.01 0.07 0.07 92 1011.4
20260502221545 45 0 0.0 1.0 0.01 0.07 0.07 92 1011.3
20260502221025 45 0 0.0 1.0 0.01 0.07 0.07 92 1011.3
20260502220525 45 0 0.0 0.0 0.01 0.07 0.07 92 1011.3
20260502220038 45 0 0.0 0.0 0.01 0.07 0.07 92 1011.3